Location: Brede
(50.9167°N, 0.6000°E)
Time: 08:24:44
(UTC+00:00)

Altair - Pass Details

Date: 07 August 2021
Orbit: 1501 x 1682 km, 47.2° (Epoch: 18 September)

Event Time Altitude Azimuth Distance (km) Brightness Sun altitude
Exits shadow 23:09:45 33° 153° (SSE) 2,416 8.0 -21.9°
Maximum altitude 23:10:49 33° 141° (SE) 2,379 8.0 -22.0°
Drops below altitude 10° 23:18:47 10° 82° (E) 3,697 9.5 -22.2°
Sets 23:22:09 0° 73° (ENE) 4,664 10.1 -22.3°
